Tracking 34794 objects as of 19-Jul-2026
HD Live streaming from Space Station
objects crossing your sky now

STARLINK-1994

Track STARLINK-1994 now!
10-day predictions
STARLINK-1994 is classified as:


NORAD ID: 47589
Int'l Code: 2021-009AT
Perigee: 293.1 km
Apogee: 299.1 km
Inclination: 53.0 °
Period: 90.3 minutes
Semi major axis: 6667 km
RCS: Unknown
Launch date: February 4, 2021
Source: United States (US)
Launch site: AIR FORCE EASTERN TEST RANGE (AFETR)
Your satellite tracking list
Your tracking list is empty




NASA's NSSDC Master Catalog

Two Line Element Set (TLE):
1 47589U 21009AT  26200.00001157  .00286350  43100-4  73539-3 0  9995
2 47589  53.0340  70.5580 0004518 234.0939 287.0733 15.94775847  6028
Source of the keplerian elements: AFSPC